TimeMDT,TemperatureF,Dew PointF,Humidity,Sea Level PressureIn,VisibilityMPH,Wind Direction,Wind SpeedMPH,Gust SpeedMPH,PrecipitationIn,Events,Conditions,WindDirDegrees,DateUTC
12:15 AM,75.4,55.0,49,29.78,10.0,East,3.5,-,N/A,,Clear,90,2013-07-06 06:15:00
12:35 AM,74.5,54.9,50,29.77,10.0,East,4.6,-,N/A,,Clear,80,2013-07-06 06:35:00
12:55 AM,73.4,54.5,51,29.76,10.0,East,3.5,-,N/A,,Clear,90,2013-07-06 06:55:00
1:15 AM,73.4,54.0,50,29.76,10.0,Calm,Calm,-,N/A,,Clear,0,2013-07-06 07:15:00
1:35 AM,72.9,53.6,51,29.76,10.0,SSE,3.5,-,N/A,,Clear,160,2013-07-06 07:35:00
1:55 AM,71.8,53.6,53,29.76,10.0,Calm,Calm,-,N/A,,Clear,0,2013-07-06 07:55:00
2:15 AM,70.2,53.6,56,29.77,10.0,WSW,6.9,-,N/A,,Clear,240,2013-07-06 08:15:00
2:35 AM,67.3,54.9,64,29.78,10.0,WSW,4.6,-,N/A,,Clear,250,2013-07-06 08:35:00
2:55 AM,66.2,54.9,67,29.77,10.0,Calm,Calm,-,N/A,,Clear,0,2013-07-06 08:55:00
3:15 AM,65.3,55.0,69,29.76,10.0,ESE,4.6,-,N/A,,Clear,110,2013-07-06 09:15:00
3:35 AM,63.7,55.4,74,29.77,10.0,East,3.5,-,N/A,,Clear,90,2013-07-06 09:35:00
3:55 AM,63.9,55.2,73,29.77,10.0,Calm,Calm,-,N/A,,Clear,0,2013-07-06 09:55:00
4:15 AM,64.8,55.0,71,29.77,10.0,Calm,Calm,-,N/A,,Clear,0,2013-07-06 10:15:00
4:35 AM,62.4,54.7,76,29.77,10.0,Calm,Calm,-,N/A,,Clear,0,2013-07-06 10:35:00
4:55 AM,60.8,55.4,82,29.79,10.0,WNW,3.5,-,N/A,,Clear,290,2013-07-06 10:55:00
5:15 AM,61.3,55.4,81,29.79,10.0,Calm,Calm,-,N/A,,Clear,0,2013-07-06 11:15:00
5:35 AM,61.2,55.8,82,29.79,10.0,WNW,3.5,-,N/A,,Clear,300,2013-07-06 11:35:00
5:55 AM,62.8,56.3,79,29.78,10.0,SE,3.5,-,N/A,,Clear,130,2013-07-06 11:55:00
6:15 AM,64.9,57.0,75,29.79,10.0,Calm,Calm,-,N/A,,Clear,0,2013-07-06 12:15:00
6:35 AM,64.8,57.6,77,29.79,10.0,Calm,Calm,-,N/A,,Clear,0,2013-07-06 12:35:00
6:55 AM,66.7,57.9,73,29.79,10.0,Calm,Calm,-,N/A,,Clear,0,2013-07-06 12:55:00
7:15 AM,68.0,57.7,70,29.80,10.0,West,4.6,-,N/A,,Clear,270,2013-07-06 13:15:00
7:35 AM,69.8,58.8,68,29.80,10.0,WNW,4.6,-,N/A,,Clear,300,2013-07-06 13:35:00
7:55 AM,72.0,58.3,62,29.80,10.0,Calm,Calm,-,N/A,,Clear,0,2013-07-06 13:55:00
8:15 AM,74.1,58.3,58,29.81,10.0,Calm,Calm,-,N/A,,Clear,0,2013-07-06 14:15:00
8:35 AM,75.4,60.1,59,29.82,10.0,WSW,3.5,-,N/A,,Clear,250,2013-07-06 14:35:00
8:55 AM,79.3,56.8,46,29.82,10.0,North,3.5,-,N/A,,Clear,360,2013-07-06 14:55:00
9:15 AM,80.6,55.9,43,29.82,10.0,NNE,5.8,-,N/A,,Clear,20,2013-07-06 15:15:00
9:35 AM,82.0,56.5,41,29.82,10.0,North,6.9,-,N/A,,Clear,360,2013-07-06 15:35:00
9:55 AM,83.8,56.3,39,29.83,10.0,NNW,9.2,-,N/A,,Clear,340,2013-07-06 15:55:00
10:15 AM,84.4,56.8,39,29.83,10.0,NNW,9.2,-,N/A,,Clear,340,2013-07-06 16:15:00
10:35 AM,86.5,56.8,36,29.83,10.0,NNW,10.4,-,N/A,,Clear,340,2013-07-06 16:35:00
10:55 AM,86.7,55.8,35,29.83,10.0,North,11.5,-,N/A,,Clear,360,2013-07-06 16:55:00
11:15 AM,88.5,55.6,33,29.84,10.0,North,10.4,17.3,N/A,,Clear,350,2013-07-06 17:15:00
11:35 AM,90.1,55.4,31,29.83,10.0,North,9.2,-,N/A,,Clear,360,2013-07-06 17:35:00
11:55 AM,91.4,54.0,28,29.83,10.0,NNW,5.8,-,N/A,,Clear,340,2013-07-06 17:55:00
12:15 PM,92.5,52.7,26,29.83,10.0,NW,10.4,-,N/A,,Clear,320,2013-07-06 18:15:00
12:35 PM,92.8,52.3,25,29.83,10.0,ENE,4.6,-,N/A,,Clear,60,2013-07-06 18:35:00
12:55 PM,94.5,52.0,24,29.83,10.0,NNW,6.9,-,N/A,,Clear,330,2013-07-06 18:55:00
1:15 PM,93.7,51.4,24,29.83,10.0,NNW,6.9,-,N/A,,Clear,340,2013-07-06 19:15:00
1:35 PM,94.8,52.3,24,29.83,10.0,North,6.9,-,N/A,,Clear,360,2013-07-06 19:35:00
1:55 PM,95.5,51.3,22,29.83,10.0,NNE,8.1,-,N/A,,Clear,30,2013-07-06 19:55:00
2:15 PM,94.1,50.2,22,29.83,10.0,ENE,3.5,-,N/A,,Clear,60,2013-07-06 20:15:00
2:35 PM,94.6,50.4,22,29.82,10.0,Calm,Calm,-,N/A,,Clear,0,2013-07-06 20:35:00
2:55 PM,95.9,50.0,21,29.82,10.0,NW,3.5,-,N/A,,Clear,320,2013-07-06 20:55:00
3:15 PM,95.2,49.8,21,29.82,10.0,ESE,3.5,-,N/A,,Clear,110,2013-07-06 21:15:00
3:35 PM,96.8,49.6,20,29.82,10.0,NNW,6.9,-,N/A,,Clear,340,2013-07-06 21:35:00
3:55 PM,95.5,52.2,23,29.82,10.0,NNW,6.9,-,N/A,,Scattered Clouds,330,2013-07-06 21:55:00
4:15 PM,95.5,51.1,22,29.82,10.0,NW,5.8,-,N/A,,Scattered Clouds,320,2013-07-06 22:15:00
4:35 PM,95.9,50.0,21,29.82,10.0,North,9.2,-,N/A,,Clear,350,2013-07-06 22:35:00
4:55 PM,94.8,50.9,22,29.82,10.0,North,6.9,-,N/A,,Clear,10,2013-07-06 22:55:00
5:15 PM,95.5,49.8,21,29.82,10.0,North,5.8,-,N/A,,Clear,360,2013-07-06 23:15:00
5:35 PM,95.7,51.1,22,29.81,10.0,NNW,5.8,-,N/A,,Clear,340,2013-07-06 23:35:00
5:55 PM,94.3,54.1,26,29.81,10.0,NNE,10.4,-,N/A,,Clear,20,2013-07-06 23:55:00
6:15 PM,93.7,54.1,26,29.81,10.0,NNE,8.1,-,N/A,,Clear,30,2013-07-07 00:15:00
6:35 PM,92.7,54.0,27,29.82,10.0,NE,5.8,-,N/A,,Clear,40,2013-07-07 00:35:00
6:55 PM,90.5,55.2,30,29.82,10.0,NNE,6.9,-,N/A,,Clear,30,2013-07-07 00:55:00
7:15 PM,89.1,55.6,32,29.82,10.0,NNE,5.8,-,N/A,,Clear,30,2013-07-07 01:15:00
7:35 PM,86.4,58.6,39,29.83,10.0,North,4.6,-,N/A,,Clear,10,2013-07-07 01:35:00
7:55 PM,85.6,56.5,37,29.83,10.0,North,8.1,-,N/A,,Clear,10,2013-07-07 01:55:00
8:15 PM,82.2,59.0,45,29.83,10.0,NNE,6.9,-,N/A,,Clear,20,2013-07-07 02:15:00
8:35 PM,80.1,57.6,46,29.84,10.0,North,6.9,-,N/A,,Clear,10,2013-07-07 02:35:00
8:55 PM,79.7,58.3,48,29.85,10.0,Calm,Calm,-,N/A,,Clear,0,2013-07-07 02:55:00
9:15 PM,80.6,58.1,46,29.86,10.0,Calm,Calm,-,N/A,,Clear,0,2013-07-07 03:15:00
9:35 PM,77.2,59.7,55,29.87,10.0,Calm,Calm,-,N/A,,Clear,0,2013-07-07 03:35:00
9:55 PM,77.9,59.0,52,29.87,10.0,ENE,5.8,-,N/A,,Clear,60,2013-07-07 03:55:00
10:15 PM,75.6,60.4,59,29.88,10.0,ENE,4.6,-,N/A,,Clear,60,2013-07-07 04:15:00
10:35 PM,74.8,60.8,62,29.88,10.0,NNE,4.6,-,N/A,,Clear,30,2013-07-07 04:35:00
10:55 PM,74.5,60.8,62,29.88,10.0,ENE,3.5,-,N/A,,Clear,70,2013-07-07 04:55:00
11:15 PM,72.5,60.1,65,29.88,10.0,Calm,Calm,-,N/A,,Clear,0,2013-07-07 05:15:00
11:35 PM,73.4,60.4,64,29.88,10.0,Calm,Calm,-,N/A,,Clear,0,2013-07-07 05:35:00
11:55 PM,72.9,60.1,64,29.88,10.0,Calm,Calm,-,N/A,,Clear,0,2013-07-07 05:55:00